Location: São Paulo
(23.5507°S, 46.6334°W)
Time: 14:24:40
(UTC-03:00)

Tiros 1 - Pass Details

Date: 15 February 2026
Orbit: 618 x 649 km, 48.4° (Epoch: 11 March)

Event Time Altitude Azimuth Distance (km) Brightness Sun altitude
Rises 21:19:49 0° 275° (W) 2,930 11.2 -33.0°
Reaches altitude 10° 21:22:53 10° 254° (WSW) 2,034 10.4 -33.6°
Maximum altitude 21:25:54 17° 214° (SW) 1,644 9.8 -34.2°
Enters shadow 21:28:21 12° 180° (S) 1,922 9.9 -34.6°
Drops below altitude 10° 21:28:57 10° 174° (S) 2,055 - -34.7°
Sets 21:32:05 0° 153° (SSE) 2,975 - -35.3°
